Skip Page Navigation
NASA JPL Caltech
NASA Logo - Jet Propulsion Laboratory + View the NASA Portal
+ Center for Near-Earth Object Studies
JPL Home Earth Solar System Stars & Galaxies Technology
JPL Solar System Dynamics
BODIES ORBITS EPHEMERIDES TOOLS PHYSICAL DATA DISCOVERY FAQ SITE MAP
JPL Small-Body Database Browser
Search: [ help ]  
181503 (2006 UC37)
Classification: Main-belt Asteroid          SPK-ID: 2181503
Ephemeris | Orbit Diagram | Orbital Elements | Mission Design | Physical Parameters | Discovery Circumstances | Close-Approach Data ]

[ show orbit diagram ]
Orbital Elements at Epoch 2459200.5 (2020-Dec-17.0) TDB
Reference: JPL 15 (heliocentric ecliptic J2000)
 Element Value Uncertainty (1-sigma)   Units 
e .07333773857878548 4.5753e-08  
a 2.928882774870763 2.853e-08 au
q 2.714085135599384 1.3445e-07 au
i 1.561167704403307 4.8719e-06 deg
node 353.4952723579116 0.00018428 deg
peri 106.6597662848453 0.00018852 deg
M 244.4478059700452 4.4103e-05 deg
tp 2459788.161320877968
(2022-Jul-27.66132088)
0.00022915 TDB
period 1830.844297610012
5.01
2.6751e-05
7.324e-08
d
yr
n .1966305930383838 2.873e-09 deg/d
Q 3.143680414142143 3.0622e-08 au
  Orbit Determination Parameters
   # obs. used (total)      269  
   data-arc span      8273 days (22.65 yr)  
   first obs. used      1998-01-22  
   last obs. used      2020-09-16  
   planetary ephem.      DE441  
   SB-pert. ephem.      SB441-N16  
   condition code      0  
   norm. resid. RMS      .58325  
   source      ORB  
   producer      Otto Matic  
   solution date      2021-Apr-13 21:30:52  

Additional Information
 Earth MOID = 1.73131 au 
 Jupiter MOID = 1.95613 au 
 T_jup = 3.272 
[ show covariance matrix ]

Ephemeris | Orbit Diagram | Orbital Elements | Mission Design | Physical Parameters | Discovery Circumstances | Close-Approach Data ]

Physical Parameter Table
Parameter Symbol Value Units Sigma Reference Notes
absolute magnitude H 16.38   n/a E2021B55  

181503 (2006 UC37)          Discovered 2006-Oct-16 by Spacewatch at Kitt Peak
Reference: 20080321/Numbers.arcLast Updated: 2008-03-26

[ show close-approach data ]
Alternate Designations
 2006 UC37 = 2001 WZ52 
Ephemeris | Orbit Diagram | Orbital Elements | Mission Design | Physical Parameters | Discovery Circumstances | Close-Approach Data ]
ABOUT SSD CREDITS/AWARDS PRIVACY/COPYRIGHT GLOSSARY LINKS
FirstGov 2021-May-19 00:11 UT
(server date/time)  
NASA Home Page
Site Manager:   Ryan S. Park
Webmaster  Alan B. Chamberlin